[[{"header":{"parameterUnit":"m.s-1","parameterCategory":1,"la1":30.2991,"la2":30.254,"lo1":-89.0895,"lo2":-89.0444,"dy":0.0017,"dx":0.0017,"nx":28,"ny":28,"refTime":"2024-12-07T09:00:00:Z","depth":0,"parameterNumber":2,"parameterNumberName":"U-component_of_WINDS"},"data":[0,0,0,0,0,0,0,0,0,0,0,0,0,0,0,0,0,0,0,0,0,0,0,0,0,0,0,0,0,0,0,0,0,0,0,0,0,0,0,0,0,0,0,0,0,0,0,0,0,0,0,0,0,0,0,0,0,0,-2.6957,-2.6958,0,-2.7,-2.7,-2.7001,-2.691,-2.6907,-2.6904,-2.6901,-2.6947,-2.6951,-2.6955,0,0,0,0,0,0,0,0,0,0,0,0,0,-2.6798,-2.6802,-2.6957,-2.6958,-2.6958,-2.7,-2.7,-2.7001,-2.691,-2.6907,-2.6903,-2.69,-2.6946,-2.695,-2.6955,0,0,0,0,0,0,0,0,0,0,0,0,0,-2.6857,-2.6803,-2.6957,-2.6918,-2.6915,-2.7,-2.7,-2.7001,-2.6911,-2.6907,-2.6902,-2.6898,-2.6944,-2.695,-2.6956,-2.7081,0,0,-2.6974,-2.6977,0,0,0,0,0,0,0,0,-2.6854,-2.6863,-2.6923,-2.6921,-2.6917,-2.6945,-2.6961,-2.7028,-2.6912,-2.6913,-2.6901,-2.6896,-2.695,-2.6955,-2.6973,-2.7083,-2.7085,-2.6974,-2.6978,-2.6981,-2.6982,0,0,0,0,0,0,0,-2.685,-2.686,-2.6974,-2.6924,-2.6921,-2.6899,-2.6902,-2.6973,-2.6956,-2.6912,-2.6906,-2.6912,-2.6948,-2.6967,-2.6973,-2.7086,-2.6974,-2.698,-2.6983,-2.6986,-2.7299,-2.7304,0,0,0,0,0,0,-2.685,-2.6858,-2.6973,-2.6975,-2.6874,-2.6905,-2.6909,-2.6941,-2.6955,-2.6952,-2.6916,-2.6908,-2.6959,-2.6967,-2.6975,-2.7121,-2.6981,-2.6986,-2.699,-2.7294,-2.73,-2.7305,0,0,0,0,0,0,-2.6847,-2.6861,-2.6971,-2.6915,-2.6927,-2.6913,-2.6949,-2.6944,-2.6963,-2.6957,-2.6954,-2.6939,-2.6956,-2.6966,-2.7055,-2.7121,-2.6989,-2.6994,-2.7289,-2.7296,-2.7303,-2.7415,0,0,0,0,0,0,-2.6843,-2.6861,-2.6908,-2.6916,-2.693,-2.705,-2.6953,-2.6948,-2.6974,-2.6964,-2.6978,-2.6976,-2.6954,-2.7046,-2.7061,-2.7127,-2.6999,-2.7283,-2.7292,-2.73,-2.7405,-2.7425,-2.7442,0,0,0,0,0,-2.6838,-2.6939,-2.6911,-2.6925,-2.6989,-2.7054,-2.7062,-2.7033,-2.698,-2.7027,-2.7023,-2.6976,-2.7112,-2.7056,-2.7071,-2.714,-2.7278,-2.7289,-2.73,-2.7397,-2.7421,-2.7441,0,0,0,0,0,0,-2.694,-2.6939,-2.6908,-2.7015,-2.7035,-2.7039,-2.7097,-2.706,-2.7096,-2.7085,-2.7049,-2.7053,-2.7148,-2.7153,-2.7091,-2.7262,-2.7186,-2.72,-2.7254,-2.7277,-2.7295,-2.7292,-2.7004,0,0,0,0,0,-2.6974,-2.7027,-2.7024,-2.7118,-2.713,-2.7113,-2.714,-2.7116,-2.7135,-2.7144,-2.7146,-2.7167,-2.7214,-2.7246,-2.729,-2.7406,-2.7407,-2.7461,-2.7479,-2.7494,-2.7507,-2.7567,-2.759,-2.734,-2.734,-2.734,0,0,-2.7047,-2.7053,-2.7089,-2.7139,-2.7152,-2.7207,-2.712,-2.7183,-2.7223,-2.7153,-2.7236,-2.7239,-2.726,-2.7363,-2.7408,-2.737,-2.7576,-2.7508,-2.752,-2.7524,-2.758,-2.7604,-2.7625,-2.7348,-2.7346,-2.7345,0,0,-2.7207,-2.7217,-2.7296,-2.7311,-2.7331,-2.7318,-2.7337,-2.7347,-2.7345,-2.7428,-2.7376,-2.7424,-2.7507,-2.7523,-2.7543,-2.7709,-2.7667,-2.7724,-2.782,-2.7879,-2.7898,-2.7915,-2.7973,-2.7994,-2.7737,-2.7737,-2.7737,0,-2.7294,-2.7375,-2.7342,-2.7407,-2.7431,-2.7369,-2.7449,-2.7465,-2.7498,-2.7516,-2.7473,-2.7574,-2.7584,-2.7689,-2.7729,-2.7748,-2.7768,-2.7722,-2.7898,-2.7915,-2.7931,-2.7985,-2.8007,-2.7744,-2.7743,-2.7742,-2.7742,0,-2.7481,-2.7538,-2.7599,-2.7632,-2.7662,-2.7735,-2.7713,-2.7748,-2.7721,-2.7713,-2.7798,-2.7808,-2.7851,-2.7874,-2.785,-2.7976,-2.7951,-2.7904,-2.7827,-2.7962,-2.8012,-2.8033,-2.7753,-2.7751,-2.7749,-2.7747,0,0,-2.7705,-2.7719,-2.7742,-2.7755,-2.7773,-2.7816,-2.7886,-2.7927,-2.7957,-2.7983,-2.804,-2.8111,-2.8066,-2.8089,-2.8065,-2.8117,-2.8246,-2.8063,-2.8063,-2.8095,-2.8383,-2.8417,-2.8442,-2.8219,-2.8223,-2.8226,-2.8381,0,-2.7862,-2.7981,-2.7953,-2.807,-2.8121,-2.8064,-2.8124,-2.8142,-2.8136,-2.8179,-2.8173,-2.8223,-2.8163,-2.8175,-2.8224,-2.822,-2.8303,-2.8209,-2.827,-2.8273,-2.8265,-2.8468,-2.8505,-2.865,-2.84,-2.8404,-2.8406,0,-2.8061,-2.8092,-2.8215,-2.8222,-2.8243,-2.8298,-2.8333,-2.8375,-2.8394,-2.8386,-2.8411,-2.8377,-2.8445,-2.8369,-2.8462,-2.8398,-2.8422,-2.8424,-2.8429,-2.8432,-2.8346,-2.8475,-2.8696,-2.8717,-2.8437,-2.8435,-2.8433,0,-2.821,-2.8284,-2.8365,-2.8379,-2.8391,-2.8431,-2.8438,-2.8452,-2.8478,-2.8509,-2.8526,-2.8566,-2.8587,-2.8618,-2.8595,-2.8542,-2.8692,-2.8614,-2.8686,-2.8687,-2.8719,-2.8717,-2.8945,-2.8738,-2.8738,-2.8738,-2.8737,0,-2.8387,-2.8463,-2.8432,-2.8483,-2.8566,-2.8534,-2.8618,-2.8618,-2.8631,-2.868,-2.8634,-2.8681,-2.8649,-2.8694,-2.8677,-2.8756,-2.8767,-2.8762,-2.8756,-2.8765,-2.8765,-2.8778,-2.8767,-2.8743,-2.8742,-2.8741,-2.874,0,-2.8567,-2.8549,-2.8634,-2.8639,-2.8642,-2.8703,-2.8706,-2.8753,-2.8744,-2.8807,-2.882,-2.8806,-2.8856,-2.8837,-2.8891,-2.8879,-2.8979,-2.8961,-2.8973,-2.8967,-2.904,-2.9032,-2.9283,-2.9313,-2.9089,-2.9091,-2.9093,0,-2.868,-2.8737,-2.8747,-2.8776,-2.8786,-2.8834,-2.886,-2.8831,-2.886,-2.8885,-2.8929,-2.8974,-2.9009,-2.9092,-2.9087,-2.9127,-2.9108,-2.9193,-2.9114,-2.912,-2.9107,-2.9103,-2.9107,-2.9209,-2.9211,-2.9213,-2.9215,0,-2.8881,-2.8869,-2.8909,-2.8946,-2.8978,-2.9006,-2.9029,-2.9056,-2.9028,-2.9063,-2.9113,-2.914,-2.9194,-2.924,-2.9276,-2.9283,-2.9244,-2.924,-2.9259,-2.9267,-2.927,-2.9267,-2.9013,-2.9234,-2.9232,-2.9231,-2.923,-2.9229,-2.9029,-2.9077,-2.9091,-2.9136,-2.915,-2.9173,-2.9217,-2.9213,-2.9254,-2.9295,-2.9275,-2.9333,-2.9349,-2.9393,-2.9406,-2.945,-2.9417,-2.9444,-2.9451,-2.9457,-2.9466,-2.9265,-2.9457,-2.9457,-2.9456,-2.9456,-2.9455,0,-2.9226,-2.9232,-2.9274,-2.9308,-2.9344,-2.9304,-2.9328,-2.936,-2.9411,-2.943,-2.9464,-2.9521,-2.9565,-2.9564,-2.9604,-2.964,-2.9623,-2.9651,-2.9647,-2.9649,-2.9494,-2.9473,-2.9664,-2.9664,-2.9664,-2.9664,-2.9664,-2.9664,-2.9333,-2.941,-2.94,-2.9484,-2.949,-2.9545,-2.9562,-2.9583,-2.9597,-2.9662,-2.9698,-2.9696,-2.9706,-2.9747,-2.9785,-2.9783,-2.9799,-2.9834,-2.9825,-2.9681,-2.966,-2.964,-2.962,-2.9838,-2.9839,-2.9976,-2.9977,-2.9978]},{"header":{"parameterUnit":"m.s-1","parameterCategory":1,"la1":30.2991,"la2":30.254,"lo1":-89.0895,"lo2":-89.0444,"dy":0.0017,"dx":0.0017,"nx":28,"ny":28,"refTime":"2024-12-07T09:00:00:Z","depth":0,"parameterNumber":3,"parameterNumberName":"V-component_of_WINDS"},"data":[0,0,0,0,0,0,0,0,0,0,0,0,0,0,0,0,0,0,0,0,0,0,0,0,0,0,0,0,0,0,0,0,0,0,0,0,0,0,0,0,0,0,0,0,0,0,0,0,0,0,0,0,0,0,0,0,0,0,-1.9494,-1.9494,0,-1.943,-1.9429,-1.9428,-1.9415,-1.9415,-1.9416,-1.9416,-1.9346,-1.9343,-1.9341,0,0,0,0,0,0,0,0,0,0,0,0,0,-1.96,-1.9598,-1.9494,-1.9494,-1.9493,-1.943,-1.9429,-1.9428,-1.9415,-1.9415,-1.9416,-1.9416,-1.9346,-1.9344,-1.9341,0,0,0,0,0,0,0,0,0,0,0,0,0,-1.9547,-1.9598,-1.9495,-1.9479,-1.9477,-1.943,-1.9429,-1.9428,-1.9415,-1.9415,-1.9416,-1.9417,-1.9347,-1.9344,-1.934,-1.9304,0,0,-1.933,-1.9328,0,0,0,0,0,0,0,0,-1.955,-1.9543,-1.9482,-1.948,-1.9477,-1.9431,-1.944,-1.9386,-1.9414,-1.9438,-1.9416,-1.9417,-1.9373,-1.9368,-1.9354,-1.93,-1.9297,-1.9329,-1.9327,-1.9326,-1.9325,0,0,0,0,0,0,0,-1.9553,-1.9545,-1.9469,-1.9481,-1.9478,-1.9473,-1.9466,-1.943,-1.9402,-1.9436,-1.9435,-1.9428,-1.9372,-1.9357,-1.9352,-1.9296,-1.9329,-1.9326,-1.9324,-1.9323,-1.9205,-1.9204,0,0,0,0,0,0,-1.9561,-1.9549,-1.9471,-1.9467,-1.9516,-1.947,-1.9463,-1.9445,-1.9402,-1.9397,-1.9427,-1.9427,-1.9363,-1.9356,-1.9349,-1.93,-1.9326,-1.9322,-1.932,-1.9206,-1.9205,-1.9204,0,0,0,0,0,0,-1.9563,-1.9554,-1.9473,-1.9507,-1.9497,-1.9468,-1.9448,-1.9443,-1.9429,-1.9396,-1.939,-1.9417,-1.9363,-1.9354,-1.9314,-1.9298,-1.9321,-1.9318,-1.9207,-1.9205,-1.9204,-1.9204,0,0,0,0,0,0,-1.9566,-1.9555,-1.9542,-1.9507,-1.9495,-1.9442,-1.9447,-1.9442,-1.9423,-1.9423,-1.9385,-1.9379,-1.9363,-1.932,-1.9311,-1.9293,-1.9315,-1.9208,-1.9206,-1.9205,-1.9205,-1.9203,-1.92,0,0,0,0,0,-1.957,-1.9545,-1.9542,-1.9532,-1.9479,-1.9441,-1.9433,-1.9416,-1.9422,-1.9407,-1.9386,-1.9381,-1.9302,-1.9316,-1.9306,-1.9287,-1.9209,-1.9207,-1.9205,-1.9206,-1.9203,-1.9201,0,0,0,0,0,0,-1.9578,-1.954,-1.9536,-1.95,-1.9473,-1.9439,-1.942,-1.9414,-1.9385,-1.9385,-1.9364,-1.9355,-1.9316,-1.9298,-1.9314,-1.9247,-1.9255,-1.9251,-1.926,-1.9257,-1.9254,-1.9258,-1.9312,0,0,0,0,0,-1.9576,-1.955,-1.9517,-1.9488,-1.9475,-1.945,-1.9433,-1.9421,-1.9393,-1.9382,-1.9357,-1.9328,-1.9296,-1.9276,-1.9245,-1.9203,-1.9192,-1.9185,-1.9182,-1.9181,-1.9176,-1.9148,-1.9143,-1.9196,-1.9196,-1.9196,0,0,-1.957,-1.9546,-1.9531,-1.9489,-1.9467,-1.9438,-1.9441,-1.9411,-1.9388,-1.9377,-1.9337,-1.9318,-1.9284,-1.9242,-1.9222,-1.9225,-1.9159,-1.9178,-1.9176,-1.9173,-1.9145,-1.914,-1.9136,-1.9194,-1.9195,-1.9195,0,0,-1.9545,-1.9526,-1.9498,-1.9476,-1.9443,-1.9426,-1.9419,-1.9385,-1.9372,-1.9332,-1.9321,-1.9293,-1.924,-1.9215,-1.9195,-1.9157,-1.915,-1.9148,-1.9134,-1.9107,-1.9103,-1.9099,-1.9082,-1.9076,-1.9144,-1.9144,-1.9144,0,-1.9542,-1.95,-1.9484,-1.9453,-1.9433,-1.9422,-1.9391,-1.937,-1.9329,-1.9314,-1.9319,-1.9249,-1.9226,-1.9176,-1.9166,-1.9152,-1.914,-1.9151,-1.9105,-1.9101,-1.9097,-1.908,-1.9074,-1.9144,-1.9144,-1.9144,-1.9144,0,-1.9496,-1.9466,-1.9447,-1.9407,-1.9385,-1.9355,-1.9331,-1.9311,-1.9301,-1.9282,-1.9239,-1.9211,-1.9172,-1.916,-1.915,-1.9107,-1.9109,-1.911,-1.9118,-1.9092,-1.9076,-1.907,-1.9144,-1.9144,-1.9144,-1.9144,0,0,-1.9475,-1.9425,-1.9418,-1.9398,-1.936,-1.9336,-1.9303,-1.9266,-1.9247,-1.9218,-1.9188,-1.9142,-1.9141,-1.9119,-1.9106,-1.9082,-1.9049,-1.9085,-1.9084,-1.9076,-1.8995,-1.8992,-1.8985,-1.9045,-1.9043,-1.9042,-1.8996,0,-1.9443,-1.9386,-1.9369,-1.932,-1.929,-1.9278,-1.9249,-1.9221,-1.9202,-1.9172,-1.915,-1.9116,-1.912,-1.9106,-1.9083,-1.9058,-1.9032,-1.9062,-1.9013,-1.9011,-1.9019,-1.8977,-1.8976,-1.8933,-1.899,-1.8989,-1.8988,0,-1.9399,-1.9369,-1.9317,-1.9279,-1.9266,-1.9241,-1.9203,-1.9176,-1.9142,-1.9129,-1.9103,-1.9091,-1.9053,-1.9064,-1.9009,-1.903,-1.9009,-1.8993,-1.8991,-1.8984,-1.8996,-1.8965,-1.892,-1.8912,-1.8979,-1.898,-1.898,0,-1.9385,-1.9332,-1.9293,-1.9277,-1.9233,-1.9214,-1.9194,-1.9162,-1.9139,-1.9106,-1.909,-1.9053,-1.9031,-1.9001,-1.8978,-1.8989,-1.8923,-1.8934,-1.8909,-1.8909,-1.8894,-1.8895,-1.8841,-1.8885,-1.8886,-1.8886,-1.8886,0,-1.935,-1.9318,-1.9285,-1.9261,-1.9223,-1.9203,-1.9165,-1.9144,-1.9115,-1.9084,-1.9071,-1.9042,-1.9014,-1.898,-1.8962,-1.8917,-1.8908,-1.8894,-1.8889,-1.8894,-1.8895,-1.8878,-1.8879,-1.8884,-1.8884,-1.8885,-1.8885,0,-1.9328,-1.9305,-1.9261,-1.9222,-1.9212,-1.9185,-1.915,-1.9124,-1.9105,-1.9065,-1.9055,-1.9022,-1.8982,-1.8956,-1.8904,-1.8892,-1.884,-1.8838,-1.8852,-1.8849,-1.8824,-1.8825,-1.8755,-1.8742,-1.8799,-1.8798,-1.8798,0,-1.9306,-1.9281,-1.9239,-1.9217,-1.9197,-1.9164,-1.914,-1.9118,-1.9093,-1.9051,-1.9029,-1.8987,-1.8953,-1.8887,-1.8858,-1.8817,-1.8811,-1.8789,-1.8805,-1.8808,-1.8806,-1.8806,-1.8801,-1.8786,-1.8785,-1.8785,-1.8785,0,-1.9268,-1.9258,-1.9225,-1.9187,-1.916,-1.9129,-1.9098,-1.908,-1.9052,-1.9024,-1.8982,-1.8955,-1.8901,-1.8859,-1.8814,-1.8791,-1.8781,-1.878,-1.8771,-1.8774,-1.8782,-1.8773,-1.8841,-1.8781,-1.8782,-1.8782,-1.8782,-1.8782,-1.9243,-1.9219,-1.9184,-1.9147,-1.9121,-1.9091,-1.9064,-1.904,-1.9005,-1.8959,-1.8948,-1.8903,-1.8865,-1.8805,-1.878,-1.8743,-1.8745,-1.8734,-1.873,-1.8727,-1.8724,-1.879,-1.8735,-1.8735,-1.8735,-1.8735,-1.8735,0,-1.9202,-1.9179,-1.9145,-1.9101,-1.907,-1.9066,-1.903,-1.9004,-1.8965,-1.8931,-1.8897,-1.8846,-1.8803,-1.877,-1.8725,-1.8701,-1.8695,-1.8689,-1.8689,-1.8683,-1.8727,-1.8737,-1.8695,-1.8695,-1.8695,-1.8695,-1.8695,-1.8695,-1.9177,-1.9134,-1.9118,-1.906,-1.9036,-1.8992,-1.8971,-1.8942,-1.8915,-1.8859,-1.8824,-1.8802,-1.8767,-1.8719,-1.8678,-1.8669,-1.8651,-1.8646,-1.8636,-1.8676,-1.8681,-1.8685,-1.8694,-1.8644,-1.8644,-1.8595,-1.8594,-1.8594]}]]